Location: Niverville
(49.6028°N, 97.0419°W)
Time: 23:42:16
(UTC-05:00)

Amateur Radio Satellites - All Passes

Search period start: 02 September 2014 23:12
Search period end: 03 September 2014 23:12
Location: Niverville, 49.6028°N, 97.0419°W

Satellite Date Start Highest point End Downlink Frequencies (MHz)
Time Altitude Azimuth
HO-68 02 Sep 23:12:04 23:17:20 22° 271° (W) 23:22:40 435.675 MHz FM
PCSat 02 Sep 23:18:58 23:22:34 18° 23° (NNE) 23:26:10 145.825 MHz
MaSat-1 02 Sep 23:23:30 23:27:20 27° 253° (WSW) 23:30:45 437.345 MHz
Saudisat 1A 02 Sep 23:35:42 23:40:07 71° 312° (NW) 23:44:33 436.775 MHz
FUNcube-1 02 Sep 23:46:02 23:49:44 29° 266° (W) 23:53:32 145.950 - 145.970 MHz USB
Sapphire 03 Sep 00:32:56 00:37:52 33° 40° (NE) 00:42:46 437.095 MHz 1200 baud AX-25 AFSK
KITSAT 1 03 Sep 00:37:35 00:45:43 85° 308° (NW) 00:53:52 435.175 FM
PCSat 03 Sep 01:01:58 01:07:17 51° 47° (NE) 01:12:34 145.825 MHz
Saudisat 1A 03 Sep 01:17:13 01:20:27 19° 334° (NNW) 01:23:42 436.775 MHz
Oscar 10/S400 03 Sep 01:25:21 02:12:52 44° 203° (SSW) 08:28:56 145.825 - 145.975 CW/USB, Beacon 145.810 USB
Oscar 16 03 Sep 01:43:16 01:45:56 14° 86° (E) 01:48:35 437.025 USB, Beacon 2401.1428
Sapphire 03 Sep 02:16:16 02:21:37 58° 241° (WSW) 02:26:55 437.095 MHz 1200 baud AX-25 AFSK
AO-27 03 Sep 02:18:23 02:20:33 12° 86° (E) 02:22:41 436.795 MHz FM
KITSAT 1 03 Sep 02:35:00 02:42:15 34° 333° (NNW) 02:49:30 435.175 FM
Oscar 19 03 Sep 02:45:23 02:50:23 44° 98° (E) 02:55:19 437.125 CW, 437.150 USB
AO-Echo 03 Sep 02:45:40 02:49:19 22° 92° (E) 02:52:57 ?
PCSat 03 Sep 02:45:43 02:50:33 33° 247° (WSW) 02:55:21 145.825 MHz
OPAL 03 Sep 02:48:37 02:50:10 11° 46° (NE) 02:51:44 ?
JAS-1B 03 Sep 02:50:00 02:55:22 25° 88° (E) 03:00:11 435.800 - 435.900 CW/SSB
SO-50 03 Sep 02:51:55 02:54:38 16° 111° (ESE) 02:57:24 436.795 FM
Saudisat 1A 03 Sep 03:00:07 03:01:43 12° 358° (N) 03:03:20 436.775 MHz
Gurwin Techsat 1B 03 Sep 03:05:25 03:08:41 16° 87° (E) 03:11:55 435.225 FM
Oscar 16 03 Sep 03:20:49 03:26:04 88° 105° (ESE) 03:31:16 437.025 USB, Beacon 2401.1428
ITAMSAT 1 03 Sep 03:25:46 03:30:45 45° 99° (E) 03:35:43 435.822 SSB
Uribyol 2 03 Sep 03:34:44 03:39:52 57° 101° (E) 03:44:59 436.500 FM
TMSAT-1 03 Sep 03:53:41 03:58:21 30° 94° (E) 04:02:58 436.925 FM
AO-27 03 Sep 03:55:41 04:00:55 80° 105° (ESE) 04:06:07 436.795 MHz FM
OPAL 03 Sep 04:23:01 04:27:58 54° 66° (ENE) 04:33:01 ?
AO-Echo 03 Sep 04:23:51 04:28:25 51° 291° (WNW) 04:32:59 ?
Oscar 19 03 Sep 04:25:02 04:29:35 31° 297° (WNW) 04:34:07 437.125 CW, 437.150 USB
SO-50 03 Sep 04:30:03 04:34:34 83° 311° (NW) 04:39:14 436.795 FM
UOSAT-12 03 Sep 04:32:08 04:34:29 14° 109° (ESE) 04:36:52 437.025 FM, 437.400 FM
KITSAT 1 03 Sep 04:33:55 04:40:20 25° 2° (N) 04:46:43 435.175 FM
JAS-1B 03 Sep 04:40:00 04:46:48 63° 293° (WNW) 04:52:38 435.800 - 435.900 CW/SSB
Saudisat 1A 03 Sep 04:40:04 04:43:04 17° 23° (NNE) 04:46:03 436.775 MHz
Gurwin Techsat 1B 03 Sep 04:43:59 04:49:20 83° 287° (WNW) 04:54:39 435.225 FM
Oscar 16 03 Sep 05:01:24 05:04:45 18° 305° (NW) 05:08:07 437.025 USB, Beacon 2401.1428
ITAMSAT 1 03 Sep 05:05:35 05:10:06 31° 298° (WNW) 05:14:36 435.822 SSB
Uribyol 2 03 Sep 05:14:49 05:19:01 26° 300° (WNW) 05:23:14 436.500 FM
Uosat F 03 Sep 05:17:25 05:21:55 33° 96° (E) 05:26:24 435.120 FM
AO-7 03 Sep 05:24:31 05:32:23 44° 99° (E) 05:40:10 29.400 - 29.500 MHz
TMSAT-1 03 Sep 05:33:24 05:38:26 45° 293° (WNW) 05:43:27 436.925 FM
AO-27 03 Sep 05:36:17 05:39:51 19° 304° (NW) 05:43:24 436.795 MHz FM
RS-15 03 Sep 05:56:42 06:01:19 14° 93° (E) 06:05:53 29.354 - 29.394 USB, Beacon 29.352 USB
OPAL 03 Sep 06:03:00 06:07:10 25° 265° (W) 06:11:24 ?
UOSAT-12 03 Sep 06:09:15 06:13:54 84° 129° (SE) 06:18:40 437.025 FM, 437.400 FM
SO-50 03 Sep 06:12:15 06:15:50 22° 333° (NNW) 06:19:30 436.795 FM
STRAND 1 03 Sep 06:13:34 06:17:55 29° 62° (ENE) 06:22:16 ?
JAS-2 03 Sep 06:18:09 06:21:38 17° 90° (E) 06:25:15 435.800 - 435.900 CW/SSB, 435.910 FM
Saudisat 1A 03 Sep 06:19:11 06:23:33 57° 45° (NE) 06:27:54 436.775 MHz
Gurwin Techsat 1B 03 Sep 06:25:22 06:28:33 16° 306° (NW) 06:31:43 435.225 FM
KITSAT 1 03 Sep 06:30:49 06:38:16 38° 31° (NNE) 06:45:40 435.175 FM
JAS-1B 03 Sep 06:32:10 06:35:54 15° 318° (NW) 06:39:21 435.800 - 435.900 CW/SSB
Uosat F 03 Sep 06:56:09 07:00:47 39° 295° (WNW) 07:05:24 435.120 FM
Hamsat 03 Sep 07:11:53 07:16:08 48° 99° (E) 07:20:18 145.90 MHz
AO-7 03 Sep 07:17:23 07:25:22 54° 300° (WNW) 07:33:19 29.400 - 29.500 MHz
UOSAT-12 03 Sep 07:50:45 07:54:38 25° 330° (NNW) 07:58:34 437.025 FM, 437.400 FM
STRAND 1 03 Sep 07:52:01 07:56:55 47° 261° (W) 08:01:51 ?
SO-50 03 Sep 07:55:54 07:58:06 13° 357° (N) 08:00:19 436.795 FM
Saudisat 1A 03 Sep 07:59:19 08:02:50 23° 244° (WSW) 08:06:20 436.775 MHz
RS-15 03 Sep 08:00:21 08:11:00 58° 117° (ESE) 08:21:33 29.354 - 29.394 USB, Beacon 29.352 USB
JAS-2 03 Sep 08:02:05 08:07:20 76° 287° (WNW) 08:12:59 435.800 - 435.900 CW/SSB, 435.910 FM
KITSAT 1 03 Sep 08:26:24 08:34:32 83° 236° (SW) 08:42:36 435.175 FM
SO-67 03 Sep 08:38:41 08:42:09 66° 101° (ESE) 08:45:35 435.3500 MHz FM
HO-68 03 Sep 08:47:22 08:49:56 12° 82° (E) 08:52:29 435.675 MHz FM
Hamsat 03 Sep 08:48:27 08:51:49 22° 298° (WNW) 08:55:08 145.90 MHz
AO-7 03 Sep 09:11:24 09:16:25 18° 324° (NW) 09:21:26 29.400 - 29.500 MHz
UOSAT-12 03 Sep 09:34:02 09:36:24 14° 354° (N) 09:38:47 437.025 FM, 437.400 FM
ISS 03 Sep 09:35:46 09:37:27 13° 137° (SE) 09:39:08 145.800 FM
SO-50 03 Sep 09:37:10 09:40:29 19° 22° (NNE) 09:43:50 436.795 FM
JAS-2 03 Sep 09:49:05 09:51:43 14° 307° (NW) 09:54:24 435.800 - 435.900 CW/SSB, 435.910 FM
RS-15 03 Sep 10:12:42 10:23:29 58° 324° (NW) 10:34:19 29.354 - 29.394 USB, Beacon 29.352 USB
SO-67 03 Sep 10:13:25 10:14:43 12° 300° (WNW) 10:16:00 435.3500 MHz FM
KITSAT 1 03 Sep 10:23:04 10:28:48 22° 257° (WSW) 10:34:31 435.175 FM
HO-68 03 Sep 10:32:04 10:39:10 61° 103° (ESE) 10:46:14 435.675 MHz FM
UKube-1 03 Sep 10:51:35 10:55:50 52° 101° (E) 11:00:05 145.840 MHz, 145.915 MHz
Oscar 11 03 Sep 10:53:38 10:57:46 39° 97° (E) 11:01:51 145.825 FM, Beacon 2401.500 USB
ISS 03 Sep 11:10:22 11:13:39 59° 155° (SSE) 11:16:56 145.800 FM
UOSAT-12 03 Sep 11:15:18 11:18:25 17° 19° (NNE) 11:21:33 437.025 FM, 437.400 FM
SO-50 03 Sep 11:17:21 11:22:02 55° 44° (NE) 11:26:48 436.795 FM
FUNcube-1 03 Sep 11:29:54 11:34:12 40° 97° (E) 11:38:33 145.950 - 145.970 MHz USB
JAS-1B 03 Sep 11:52:48 11:56:38 14° 40° (NE) 12:00:15 435.800 - 435.900 CW/SSB
HO-68 03 Sep 12:20:14 12:26:34 35° 303° (WNW) 12:32:53 435.675 MHz FM
UKube-1 03 Sep 12:28:28 12:31:44 21° 299° (WNW) 12:35:00 145.840 MHz, 145.915 MHz
RS-15 03 Sep 12:28:40 12:38:33 37° 356° (N) 12:48:36 29.354 - 29.394 USB, Beacon 29.352 USB
Oscar 19 03 Sep 12:29:41 12:33:04 18° 55° (NE) 12:36:28 437.125 CW, 437.150 USB
Oscar 11 03 Sep 12:30:08 12:33:48 27° 296° (WNW) 12:37:27 145.825 FM, Beacon 2401.500 USB
ISS 03 Sep 12:47:07 12:50:25 60° 354° (N) 12:53:44 145.800 FM
UOSAT-12 03 Sep 12:55:06 12:59:42 47° 42° (NE) 13:04:15 437.025 FM, 437.400 FM
SO-50 03 Sep 12:58:20 13:02:23 28° 243° (WSW) 13:06:28 436.795 FM
Oscar 16 03 Sep 13:03:46 13:08:19 32° 63° (ENE) 13:12:53 437.025 USB, Beacon 2401.1428
FUNcube-1 03 Sep 13:06:36 13:10:28 28° 295° (WNW) 13:14:22 145.950 - 145.970 MHz USB
ITAMSAT 1 03 Sep 13:10:56 13:14:28 19° 56° (NE) 13:18:00 435.822 SSB
MaSat-1 03 Sep 13:13:48 13:18:41 54° 114° (ESE) 13:23:43 437.345 MHz
Uribyol 2 03 Sep 13:19:19 13:23:15 23° 58° (ENE) 13:27:13 436.500 FM
JAS-1B 03 Sep 13:36:44 13:45:23 44° 62° (ENE) 13:52:57 435.800 - 435.900 CW/SSB
AO-27 03 Sep 13:39:50 13:44:19 31° 62° (ENE) 13:48:49 436.795 MHz FM
TMSAT-1 03 Sep 13:42:19 13:44:54 14° 52° (NE) 13:47:29 436.925 FM
AO-Echo 03 Sep 14:02:33 14:07:15 46° 68° (ENE) 14:11:51 ?
Oscar 19 03 Sep 14:06:34 14:11:45 86° 255° (WSW) 14:17:00 437.125 CW, 437.150 USB
HO-68 03 Sep 14:11:19 14:12:15 10° 327° (NNW) 14:13:11 435.675 MHz FM
ISS 03 Sep 14:24:00 14:27:21 77° 15° (NNE) 14:30:41 145.800 FM
Gurwin Techsat 1B 03 Sep 14:30:17 14:35:09 39° 65° (ENE) 14:40:03 435.225 FM
UOSAT-12 03 Sep 14:35:31 14:39:46 33° 242° (WSW) 14:43:57 437.025 FM, 437.400 FM
AO-7 03 Sep 14:38:09 14:44:35 26° 45° (NE) 14:51:00 29.400 - 29.500 MHz
Oscar 16 03 Sep 14:42:39 14:47:33 43° 262° (W) 14:52:31 437.025 USB, Beacon 2401.1428
RS-15 03 Sep 14:43:27 14:54:02 49° 29° (NNE) 15:04:53 29.354 - 29.394 USB, Beacon 29.352 USB
ITAMSAT 1 03 Sep 14:48:12 14:53:23 80° 255° (WSW) 14:58:35 435.822 SSB
MaSat-1 03 Sep 14:51:24 14:55:58 32° 314° (NW) 15:00:33 437.345 MHz
Uribyol 2 03 Sep 14:57:12 15:02:19 65° 258° (WSW) 15:07:29 436.500 FM
Uosat F 03 Sep 14:59:34 15:01:52 13° 52° (NE) 15:04:10 435.120 FM
TMSAT-1 03 Sep 15:18:40 15:23:55 70° 72° (ENE) 15:29:12 436.925 FM
AO-27 03 Sep 15:18:45 15:23:41 45° 261° (W) 15:28:40 436.795 MHz FM
JAS-1B 03 Sep 15:26:20 15:35:44 59° 260° (W) 15:43:57 435.800 - 435.900 CW/SSB
AO-Echo 03 Sep 15:42:08 15:46:14 26° 266° (W) 15:50:17 ?
Oscar 19 03 Sep 15:49:22 15:51:54 14° 274° (W) 15:54:27 437.125 CW, 437.150 USB
PCSat 03 Sep 15:50:16 15:53:36 17° 105° (ESE) 15:56:57 145.825 MHz
ISS 03 Sep 16:00:54 16:03:54 31° 213° (SSW) 16:06:54 145.800 FM
Gurwin Techsat 1B 03 Sep 16:10:18 16:15:10 36° 264° (W) 16:20:03 435.225 FM
AO-7 03 Sep 16:27:58 16:36:19 82° 68° (ENE) 16:44:40 29.400 - 29.500 MHz
ITAMSAT 1 03 Sep 16:31:38 16:33:44 12° 274° (W) 16:35:50 435.822 SSB
MaSat-1 03 Sep 16:33:06 16:34:32 11° 337° (NNW) 16:35:57 437.345 MHz
Uosat F 03 Sep 16:34:50 16:39:48 71° 72° (ENE) 16:44:49 435.120 FM
JAS-2 03 Sep 16:37:16 16:40:06 14° 53° (NE) 16:42:50 435.800 - 435.900 CW/SSB, 435.910 FM
RS-15 03 Sep 16:56:16 17:07:16 76° 237° (WSW) 17:18:41 29.354 - 29.394 USB, Beacon 29.352 USB
TMSAT-1 03 Sep 17:00:37 17:04:22 20° 271° (W) 17:08:10 436.925 FM
Sapphire 03 Sep 17:02:03 17:07:17 54° 118° (ESE) 17:12:35 437.095 MHz 1200 baud AX-25 AFSK
JAS-1B 03 Sep 17:23:17 17:27:44 14° 279° (W) 17:31:59 435.800 - 435.900 CW/SSB
PCSat 03 Sep 17:30:51 17:36:17 90° 135° (SE) 17:41:45 145.825 MHz
OPAL 03 Sep 18:07:07 18:12:19 60° 104° (ESE) 18:17:27 ?
Hamsat 03 Sep 18:09:08 18:13:25 59° 72° (ENE) 18:17:44 145.90 MHz
Uosat F 03 Sep 18:15:47 18:19:08 18° 270° (W) 18:22:30 435.120 FM
JAS-2 03 Sep 18:18:42 18:24:29 76° 72° (ENE) 18:29:48 435.800 - 435.900 CW/SSB, 435.910 FM
AO-7 03 Sep 18:23:16 18:30:00 27° 269° (W) 18:36:47 29.400 - 29.500 MHz
Sapphire 03 Sep 18:46:02 18:50:59 35° 319° (NW) 18:55:57 437.095 MHz 1200 baud AX-25 AFSK
RS-15 03 Sep 19:10:05 19:17:46 22° 260° (W) 19:25:41 29.354 - 29.394 USB, Beacon 29.352 USB
SO-67 03 Sep 19:15:44 19:19:02 42° 72° (ENE) 19:22:21 435.3500 MHz FM
PCSat 03 Sep 19:16:00 19:20:26 25° 327° (NNW) 19:24:53 145.825 MHz
HO-68 03 Sep 19:20:36 19:25:20 19° 46° (NE) 19:30:03 435.675 MHz FM
OPAL 03 Sep 19:46:37 19:50:50 25° 303° (WNW) 19:55:02 ?
Hamsat 03 Sep 19:46:54 19:49:46 17° 271° (W) 19:52:40 145.90 MHz
MaSat-1 03 Sep 19:51:28 19:53:19 12° 26° (NNE) 19:55:07 437.345 MHz
STRAND 1 03 Sep 19:57:57 20:02:49 42° 98° (E) 20:07:39 ?
JAS-2 03 Sep 20:06:21 20:10:09 18° 270° (W) 20:13:48 435.800 - 435.900 CW/SSB, 435.910 FM
UKube-1 03 Sep 20:18:18 20:19:58 12° 54° (NE) 20:21:39 145.840 MHz, 145.915 MHz
Sapphire 03 Sep 20:33:07 20:36:04 15° 344° (NNW) 20:39:02 437.095 MHz 1200 baud AX-25 AFSK
SO-67 03 Sep 20:50:12 20:52:19 15° 269° (W) 20:54:26 435.3500 MHz FM
PCSat 03 Sep 21:03:29 21:05:52 13° 353° (N) 21:08:15 145.825 MHz
HO-68 03 Sep 21:04:48 21:11:53 70° 67° (ENE) 21:19:00 435.675 MHz FM
MaSat-1 03 Sep 21:27:14 21:31:43 40° 49° (NE) 21:35:39 437.345 MHz
STRAND 1 03 Sep 21:37:25 21:41:54 32° 297° (WNW) 21:46:23 ?
UKube-1 03 Sep 21:51:07 21:55:27 80° 73° (ENE) 21:59:49 145.840 MHz, 145.915 MHz
Oscar 11 03 Sep 21:52:41 21:56:54 53° 71° (ENE) 22:01:11 145.825 FM, Beacon 2401.500 USB
Saudisat 1A 03 Sep 22:09:13 22:13:06 31° 118° (ESE) 22:17:00 436.775 MHz
Sapphire 03 Sep 22:19:21 22:21:55 13° 11° (N) 22:24:29 437.095 MHz 1200 baud AX-25 AFSK
FUNcube-1 03 Sep 22:30:37 22:34:44 52° 71° (ENE) 22:38:58 145.950 - 145.970 MHz USB
PCSat 03 Sep 22:48:26 22:51:41 16° 19° (NNE) 22:54:55 145.825 MHz
HO-68 03 Sep 22:54:14 23:00:11 28° 268° (W) 23:06:11 435.675 MHz FM
MaSat-1 03 Sep 23:04:36 23:08:32 29° 252° (WSW) 23:12:00 437.345 MHz
